Time,TemperatureF,DewpointF,PressureIn,WindDirection,WindDirectionDegrees,WindSpeedMPH,WindSpeedGustMPH,Humidity,HourlyPrecipIn,Conditions,Clouds,dailyrainin,SoftwareType,DateUTC
2013-02-04 00:02:00,64.0,-99.9,30.03,SE,137,12.0,14.0,-999,-99.99,,,-99.99,,2013-02-04 06:02:00,
2013-02-04 00:11:00,64.0,-99.9,30.04,SE,136,13.0,15.0,-999,-99.99,,,-99.99,,2013-02-04 06:11:00,
2013-02-04 00:22:00,64.0,-99.9,30.02,SE,136,13.0,14.0,-999,-99.99,,,-99.99,,2013-02-04 06:22:00,
2013-02-04 00:32:00,64.0,-99.9,30.01,SE,133,13.0,15.0,-999,-99.99,,,-99.99,,2013-02-04 06:32:00,
2013-02-04 00:42:00,64.0,-99.9,30.01,SE,131,14.0,15.0,-999,-99.99,,,-99.99,,2013-02-04 06:42:00,
2013-02-04 00:52:00,64.0,-99.9,29.99,SE,127,14.0,16.0,-999,-99.99,,,-99.99,,2013-02-04 06:52:00,
2013-02-04 01:02:00,64.0,-99.9,30.00,SE,136,13.0,14.0,-999,-99.99,,,-99.99,,2013-02-04 07:02:00,
2013-02-04 01:11:00,64.0,-99.9,30.00,SE,135,11.0,14.0,-999,-99.99,,,-99.99,,2013-02-04 07:11:00,
2013-02-04 01:22:00,64.0,-99.9,30.00,SE,139,12.0,14.0,-999,-99.99,,,-99.99,,2013-02-04 07:22:00,
2013-02-04 01:32:00,64.0,-99.9,30.00,SE,140,10.0,11.0,-999,-99.99,,,-99.99,,2013-02-04 07:32:00,
2013-02-04 01:42:00,64.0,-99.9,29.99,SE,143,10.0,11.0,-999,-99.99,,,-99.99,,2013-02-04 07:42:00,
2013-02-04 01:52:00,64.0,-99.9,29.99,SE,136,11.0,12.0,-999,-99.99,,,-99.99,,2013-02-04 07:52:00,
2013-02-04 02:01:00,64.0,-99.9,29.98,SE,137,12.0,13.0,-999,-99.99,,,-99.99,,2013-02-04 08:01:00,
2013-02-04 02:11:00,64.0,-99.9,29.97,SE,139,11.0,13.0,-999,-99.99,,,-99.99,,2013-02-04 08:11:00,
2013-02-04 02:21:00,64.0,-99.9,29.97,SE,135,14.0,15.0,-999,-99.99,,,-99.99,,2013-02-04 08:21:00,
2013-02-04 02:32:00,64.0,-99.9,29.96,SE,138,13.0,16.0,-999,-99.99,,,-99.99,,2013-02-04 08:32:00,
2013-02-04 02:42:00,64.0,-99.9,29.96,SE,142,14.0,15.0,-999,-99.99,,,-99.99,,2013-02-04 08:42:00,
2013-02-04 02:52:00,64.0,-99.9,29.95,SE,141,14.0,15.0,-999,-99.99,,,-99.99,,2013-02-04 08:52:00,
2013-02-04 03:02:00,64.0,-99.9,29.94,SE,139,13.0,15.0,-999,-99.99,,,-99.99,,2013-02-04 09:02:00,
2013-02-04 03:11:00,64.0,-99.9,29.95,SE,139,12.0,14.0,-999,-99.99,,,-99.99,,2013-02-04 09:11:00,
2013-02-04 03:22:00,64.0,-99.9,29.95,SE,140,12.0,13.0,-999,-99.99,,,-99.99,,2013-02-04 09:22:00,
2013-02-04 03:32:00,64.0,-99.9,29.95,SE,141,11.0,12.0,-999,-99.99,,,-99.99,,2013-02-04 09:32:00,
2013-02-04 03:42:00,64.0,-99.9,29.95,SE,140,11.0,12.0,-999,-99.99,,,-99.99,,2013-02-04 09:42:00,
2013-02-04 03:52:00,64.0,-99.9,29.94,SE,142,10.0,12.0,-999,-99.99,,,-99.99,,2013-02-04 09:52:00,
2013-02-04 04:02:00,64.0,-99.9,29.95,SE,145,11.0,11.0,-999,-99.99,,,-99.99,,2013-02-04 10:02:00,
2013-02-04 04:12:00,64.0,-99.9,29.95,SE,144,10.0,11.0,-999,-99.99,,,-99.99,,2013-02-04 10:12:00,
2013-02-04 04:22:00,64.0,-99.9,29.95,SSE,148,10.0,11.0,-999,-99.99,,,-99.99,,2013-02-04 10:22:00,
2013-02-04 04:32:00,64.0,-99.9,29.95,SE,140,9.0,10.0,-999,-99.99,,,-99.99,,2013-02-04 10:32:00,
2013-02-04 04:42:00,64.0,-99.9,29.95,SE,136,8.0,10.0,-999,-99.99,,,-99.99,,2013-02-04 10:42:00,
2013-02-04 04:52:00,64.0,-99.9,29.95,SE,141,7.0,9.0,-999,-99.99,,,-99.99,,2013-02-04 10:52:00,
2013-02-04 05:02:00,64.0,-99.9,29.95,SSE,147,6.0,8.0,-999,-99.99,,,-99.99,,2013-02-04 11:02:00,
2013-02-04 05:11:00,64.0,-99.9,29.96,SSE,147,6.0,7.0,-999,-99.99,,,-99.99,,2013-02-04 11:11:00,
2013-02-04 05:22:00,64.0,-99.9,29.96,SE,146,7.0,7.0,-999,-99.99,,,-99.99,,2013-02-04 11:22:00,
2013-02-04 05:33:00,64.0,-99.9,29.96,SE,141,6.0,6.0,-999,-99.99,,,-99.99,,2013-02-04 11:33:00,
2013-02-04 05:42:00,64.0,-99.9,29.96,SE,135,7.0,7.0,-999,-99.99,,,-99.99,,2013-02-04 11:42:00,
2013-02-04 05:52:00,64.0,-99.9,29.94,SE,135,9.0,10.0,-999,-99.99,,,-99.99,,2013-02-04 11:52:00,
2013-02-04 06:03:00,64.0,-99.9,29.93,SE,131,10.0,10.0,-999,-99.99,,,-99.99,,2013-02-04 12:03:00,
2013-02-04 06:12:00,64.0,-99.9,29.93,SE,130,9.0,11.0,-999,-99.99,,,-99.99,,2013-02-04 12:12:00,
2013-02-04 06:22:00,64.0,-99.9,29.93,SE,126,10.0,11.0,-999,-99.99,,,-99.99,,2013-02-04 12:22:00,
2013-02-04 06:33:00,64.0,-99.9,29.92,ESE,121,9.0,11.0,-999,-99.99,,,-99.99,,2013-02-04 12:33:00,
2013-02-04 06:42:00,64.0,-99.9,29.93,SE,128,9.0,10.0,-999,-99.99,,,-99.99,,2013-02-04 12:42:00,
2013-02-04 06:53:00,64.0,-99.9,29.93,SE,131,10.0,11.0,-999,-99.99,,,-99.99,,2013-02-04 12:53:00,
2013-02-04 07:03:00,64.0,-99.9,29.93,SE,131,8.0,10.0,-999,-99.99,,,-99.99,,2013-02-04 13:03:00,
2013-02-04 07:12:00,64.0,-99.9,29.94,SE,131,9.0,10.0,-999,-99.99,,,-99.99,,2013-02-04 13:12:00,
2013-02-04 07:22:00,64.0,-99.9,29.93,SE,131,9.0,11.0,-999,-99.99,,,-99.99,,2013-02-04 13:22:00,
2013-02-04 07:33:00,64.0,-99.9,29.93,SE,127,10.0,12.0,-999,-99.99,,,-99.99,,2013-02-04 13:33:00,
2013-02-04 07:42:00,64.0,-99.9,29.93,SE,127,11.0,12.0,-999,-99.99,,,-99.99,,2013-02-04 13:42:00,
2013-02-04 07:52:00,64.0,-99.9,29.93,SE,132,10.0,11.0,-999,-99.99,,,-99.99,,2013-02-04 13:52:00,
2013-02-04 08:03:00,64.0,-99.9,29.93,SE,134,12.0,13.0,-999,-99.99,,,-99.99,,2013-02-04 14:03:00,
2013-02-04 08:12:00,65.0,-99.9,29.93,SE,133,11.0,13.0,-999,-99.99,,,-99.99,,2013-02-04 14:12:00,
2013-02-04 08:23:00,64.0,-99.9,29.93,SE,138,11.0,12.0,-999,-99.99,,,-99.99,,2013-02-04 14:23:00,
2013-02-04 08:33:00,64.0,-99.9,29.93,SE,135,12.0,13.0,-999,-99.99,,,-99.99,,2013-02-04 14:33:00,
2013-02-04 08:42:00,64.0,-99.9,29.93,SE,138,11.0,13.0,-999,-99.99,,,-99.99,,2013-02-04 14:42:00,
2013-02-04 08:53:00,64.0,-99.9,29.94,SE,141,9.0,10.0,-999,-99.99,,,-99.99,,2013-02-04 14:53:00,
2013-02-04 09:04:00,64.0,-99.9,29.94,SSE,147,9.0,10.0,-999,-99.99,,,-99.99,,2013-02-04 15:04:00,
2013-02-04 09:13:00,64.0,-99.9,29.94,SE,145,10.0,11.0,-999,-99.99,,,-99.99,,2013-02-04 15:13:00,
2013-02-04 09:24:00,64.0,-99.9,29.93,SSE,151,11.0,12.0,-999,-99.99,,,-99.99,,2013-02-04 15:24:00,
2013-02-04 09:33:00,64.0,-99.9,29.94,SSE,150,11.0,12.0,-999,-99.99,,,-99.99,,2013-02-04 15:33:00,
2013-02-04 09:43:00,64.0,-99.9,29.94,SSE,150,11.0,13.0,-999,-99.99,,,-99.99,,2013-02-04 15:43:00,
2013-02-04 09:53:00,64.0,-99.9,29.94,SSE,148,11.0,12.0,-999,-99.99,,,-99.99,,2013-02-04 15:53:00,
2013-02-04 10:03:00,65.0,-99.9,29.94,SSE,148,12.0,12.0,-999,-99.99,,,-99.99,,2013-02-04 16:03:00,
2013-02-04 10:11:00,65.0,-99.9,29.94,SE,144,13.0,13.0,-999,-99.99,,,-99.99,,2013-02-04 16:11:00,
2013-02-04 10:23:00,64.0,-99.9,29.93,SE,143,13.0,15.0,-999,-99.99,,,-99.99,,2013-02-04 16:23:00,
2013-02-04 10:33:00,64.0,-99.9,29.93,SE,138,13.0,15.0,-999,-99.99,,,-99.99,,2013-02-04 16:33:00,
2013-02-04 10:43:00,64.0,-99.9,29.92,SE,136,13.0,15.0,-999,-99.99,,,-99.99,,2013-02-04 16:43:00,
2013-02-04 10:52:00,64.0,-99.9,29.92,SE,140,14.0,15.0,-999,-99.99,,,-99.99,,2013-02-04 16:52:00,
2013-02-04 11:03:00,64.0,-99.9,29.92,SE,140,14.0,15.0,-999,-99.99,,,-99.99,,2013-02-04 17:03:00,
2013-02-04 11:12:00,65.0,-99.9,29.90,SE,139,17.0,18.0,-999,-99.99,,,-99.99,,2013-02-04 17:12:00,
2013-02-04 11:21:00,65.0,-99.9,29.89,SE,135,18.0,20.0,-999,-99.99,,,-99.99,,2013-02-04 17:21:00,
2013-02-04 11:32:00,65.0,-99.9,29.88,SE,140,17.0,19.0,-999,-99.99,,,-99.99,,2013-02-04 17:32:00,
2013-02-04 11:42:00,65.0,-99.9,29.88,SSE,148,16.0,18.0,-999,-99.99,,,-99.99,,2013-02-04 17:42:00,
2013-02-04 11:52:00,65.0,-99.9,29.89,SSE,157,13.0,15.0,-999,-99.99,,,-99.99,,2013-02-04 17:52:00,
2013-02-04 12:03:00,65.0,-99.9,29.91,South,171,11.0,13.0,-999,-99.99,,,-99.99,,2013-02-04 18:03:00,
2013-02-04 12:12:00,65.0,-99.9,29.91,South,172,10.0,12.0,-999,-99.99,,,-99.99,,2013-02-04 18:12:00,
2013-02-04 12:22:00,65.0,-99.9,29.91,South,170,9.0,11.0,-999,-99.99,,,-99.99,,2013-02-04 18:22:00,
2013-02-04 12:33:00,65.0,-99.9,29.91,South,173,9.0,10.0,-999,-99.99,,,-99.99,,2013-02-04 18:33:00,
2013-02-04 12:42:00,65.0,-99.9,29.91,SSE,166,9.0,10.0,-999,-99.99,,,-99.99,,2013-02-04 18:42:00,
2013-02-04 12:52:00,65.0,-99.9,29.90,SSE,147,8.0,9.0,-999,-99.99,,,-99.99,,2013-02-04 18:52:00,
2013-02-04 13:02:00,65.0,-99.9,29.89,SE,134,9.0,10.0,-999,-99.99,,,-99.99,,2013-02-04 19:02:00,
2013-02-04 13:12:00,65.0,-99.9,29.88,SE,132,10.0,10.0,-999,-99.99,,,-99.99,,2013-02-04 19:12:00,
2013-02-04 13:23:00,65.0,-99.9,29.87,SE,125,9.0,11.0,-999,-99.99,,,-99.99,,2013-02-04 19:23:00,
2013-02-04 13:32:00,65.0,-99.9,29.87,SE,124,11.0,12.0,-999,-99.99,,,-99.99,,2013-02-04 19:32:00,
2013-02-04 13:42:00,65.0,-99.9,29.86,SE,126,10.0,12.0,-999,-99.99,,,-99.99,,2013-02-04 19:42:00,
2013-02-04 13:52:00,65.0,-99.9,29.86,ESE,122,10.0,11.0,-999,-99.99,,,-99.99,,2013-02-04 19:52:00,
2013-02-04 14:02:00,65.0,-99.9,29.85,ESE,121,10.0,11.0,-999,-99.99,,,-99.99,,2013-02-04 20:02:00,
2013-02-04 14:12:00,65.0,-99.9,29.85,ESE,120,9.0,10.0,-999,-99.99,,,-99.99,,2013-02-04 20:12:00,
2013-02-04 14:22:00,65.0,-99.9,29.84,ESE,121,9.0,10.0,-999,-99.99,,,-99.99,,2013-02-04 20:22:00,
2013-02-04 14:32:00,65.0,-99.9,29.84,ESE,115,11.0,12.0,-999,-99.99,,,-99.99,,2013-02-04 20:32:00,
2013-02-04 14:42:00,65.0,-99.9,29.83,ESE,115,11.0,12.0,-999,-99.99,,,-99.99,,2013-02-04 20:42:00,
2013-02-04 14:52:00,65.0,-99.9,29.83,ESE,113,12.0,13.0,-999,-99.99,,,-99.99,,2013-02-04 20:52:00,
2013-02-04 15:03:00,65.0,-99.9,29.82,ESE,110,13.0,14.0,-999,-99.99,,,-99.99,,2013-02-04 21:03:00,
2013-02-04 15:12:00,65.0,-99.9,29.81,ESE,110,13.0,14.0,-999,-99.99,,,-99.99,,2013-02-04 21:12:00,
2013-02-04 15:23:00,65.0,-99.9,29.81,ESE,108,13.0,14.0,-999,-99.99,,,-99.99,,2013-02-04 21:23:00,
2013-02-04 15:32:00,65.0,-99.9,29.81,ESE,107,13.0,14.0,-999,-99.99,,,-99.99,,2013-02-04 21:32:00,
2013-02-04 15:43:00,65.0,-99.9,29.81,ESE,110,12.0,14.0,-999,-99.99,,,-99.99,,2013-02-04 21:43:00,
2013-02-04 15:52:00,65.0,-99.9,29.81,ESE,113,12.0,13.0,-999,-99.99,,,-99.99,,2013-02-04 21:52:00,
2013-02-04 16:03:00,65.0,-99.9,29.80,ESE,111,13.0,13.0,-999,-99.99,,,-99.99,,2013-02-04 22:03:00,
2013-02-04 16:12:00,65.0,-99.9,29.80,ESE,109,12.0,13.0,-999,-99.99,,,-99.99,,2013-02-04 22:12:00,
2013-02-04 16:22:00,65.0,-99.9,29.80,ESE,111,12.0,13.0,-999,-99.99,,,-99.99,,2013-02-04 22:22:00,
2013-02-04 16:33:00,65.0,-99.9,29.80,ESE,111,12.0,14.0,-999,-99.99,,,-99.99,,2013-02-04 22:33:00,
2013-02-04 16:42:00,65.0,-99.9,29.80,ESE,112,13.0,15.0,-999,-99.99,,,-99.99,,2013-02-04 22:42:00,
2013-02-04 16:52:00,66.0,-99.9,29.80,ESE,113,14.0,15.0,-999,-99.99,,,-99.99,,2013-02-04 22:52:00,
2013-02-04 17:02:00,66.0,-99.9,29.80,SE,124,14.0,17.0,-999,-99.99,,,-99.99,,2013-02-04 23:02:00,
2013-02-04 17:11:00,66.0,-99.9,29.80,SE,127,16.0,17.0,-999,-99.99,,,-99.99,,2013-02-04 23:11:00,
2013-02-04 17:22:00,66.0,-99.9,29.80,ESE,121,15.0,17.0,-999,-99.99,,,-99.99,,2013-02-04 23:22:00,
2013-02-04 17:32:00,66.0,-99.9,29.80,ESE,121,15.0,16.0,-999,-99.99,,,-99.99,,2013-02-04 23:32:00,
2013-02-04 17:42:00,66.0,-99.9,29.79,ESE,123,15.0,16.0,-999,-99.99,,,-99.99,,2013-02-04 23:42:00,
2013-02-04 17:53:00,66.0,-99.9,29.80,SE,128,15.0,17.0,-999,-99.99,,,-99.99,,2013-02-04 23:53:00,
2013-02-04 18:02:00,66.0,-99.9,29.79,SE,127,15.0,17.0,-999,-99.99,,,-99.99,,2013-02-05 00:02:00,
2013-02-04 18:12:00,66.0,-99.9,29.79,SE,124,15.0,16.0,-999,-99.99,,,-99.99,,2013-02-05 00:12:00,
2013-02-04 18:22:00,66.0,-99.9,29.79,SE,125,15.0,17.0,-999,-99.99,,,-99.99,,2013-02-05 00:22:00,
2013-02-04 18:32:00,66.0,-99.9,29.79,SE,129,16.0,18.0,-999,-99.99,,,-99.99,,2013-02-05 00:32:00,
2013-02-04 18:42:00,66.0,-99.9,29.79,SE,130,16.0,18.0,-999,-99.99,,,-99.99,,2013-02-05 00:42:00,
2013-02-04 18:52:00,66.0,-99.9,29.80,SE,130,15.0,17.0,-999,-99.99,,,-99.99,,2013-02-05 00:52:00,
2013-02-04 19:02:00,66.0,-99.9,29.80,SE,131,15.0,17.0,-999,-99.99,,,-99.99,,2013-02-05 01:02:00,
2013-02-04 19:12:00,66.0,-99.9,29.81,SE,131,15.0,16.0,-999,-99.99,,,-99.99,,2013-02-05 01:12:00,
2013-02-04 19:22:00,66.0,-99.9,29.81,SE,134,14.0,17.0,-999,-99.99,,,-99.99,,2013-02-05 01:22:00,
2013-02-04 19:33:00,66.0,-99.9,29.82,SE,136,14.0,15.0,-999,-99.99,,,-99.99,,2013-02-05 01:33:00,
2013-02-04 19:42:00,66.0,-99.9,29.82,SE,139,15.0,17.0,-999,-99.99,,,-99.99,,2013-02-05 01:42:00,
2013-02-04 19:52:00,66.0,-99.9,29.82,SE,140,14.0,16.0,-999,-99.99,,,-99.99,,2013-02-05 01:52:00,
2013-02-04 20:02:00,66.0,-99.9,29.83,SE,135,13.0,15.0,-999,-99.99,,,-99.99,,2013-02-05 02:02:00,
2013-02-04 20:11:00,66.0,-99.9,29.83,SE,134,13.0,14.0,-999,-99.99,,,-99.99,,2013-02-05 02:11:00,
2013-02-04 20:22:00,65.0,-99.9,29.83,SE,136,12.0,14.0,-999,-99.99,,,-99.99,,2013-02-05 02:22:00,
2013-02-04 20:32:00,65.0,-99.9,29.84,SE,137,10.0,13.0,-999,-99.99,,,-99.99,,2013-02-05 02:32:00,
2013-02-04 20:42:00,65.0,-99.9,29.84,SE,143,11.0,12.0,-999,-99.99,,,-99.99,,2013-02-05 02:42:00,
2013-02-04 20:52:00,65.0,-99.9,29.85,SE,146,12.0,13.0,-999,-99.99,,,-99.99,,2013-02-05 02:52:00,
2013-02-04 21:02:00,65.0,-99.9,29.85,SSE,147,12.0,14.0,-999,-99.99,,,-99.99,,2013-02-05 03:02:00,
2013-02-04 21:11:00,65.0,-99.9,29.85,SSE,147,12.0,14.0,-999,-99.99,,,-99.99,,2013-02-05 03:11:00,
2013-02-04 21:22:00,65.0,-99.9,29.85,SE,141,13.0,14.0,-999,-99.99,,,-99.99,,2013-02-05 03:22:00,
2013-02-04 21:32:00,65.0,-99.9,29.85,SE,141,13.0,14.0,-999,-99.99,,,-99.99,,2013-02-05 03:32:00,
2013-02-04 21:42:00,65.0,-99.9,29.85,SE,140,13.0,14.0,-999,-99.99,,,-99.99,,2013-02-05 03:42:00,
2013-02-04 21:52:00,65.0,-99.9,29.85,SE,142,12.0,15.0,-999,-99.99,,,-99.99,,2013-02-05 03:52:00,
2013-02-04 22:01:00,65.0,-99.9,29.84,SE,130,13.0,16.0,-999,-99.99,,,-99.99,,2013-02-05 04:01:00,
2013-02-04 22:11:00,65.0,-99.9,29.84,SE,133,13.0,15.0,-999,-99.99,,,-99.99,,2013-02-05 04:11:00,
2013-02-04 22:22:00,65.0,-99.9,29.85,SSE,147,13.0,15.0,-999,-99.99,,,-99.99,,2013-02-05 04:22:00,
2013-02-04 22:32:00,65.0,-99.9,29.85,SSE,148,14.0,15.0,-999,-99.99,,,-99.99,,2013-02-05 04:32:00,
2013-02-04 22:42:00,65.0,-99.9,29.85,SSE,152,15.0,16.0,-999,-99.99,,,-99.99,,2013-02-05 04:42:00,
2013-02-04 22:52:00,65.0,-99.9,29.86,SSE,156,15.0,16.0,-999,-99.99,,,-99.99,,2013-02-05 04:52:00,
2013-02-04 23:03:00,65.0,-99.9,29.86,SSE,155,15.0,16.0,-999,-99.99,,,-99.99,,2013-02-05 05:03:00,
2013-02-04 23:12:00,65.0,-99.9,29.86,SSE,156,14.0,16.0,-999,-99.99,,,-99.99,,2013-02-05 05:12:00,
2013-02-04 23:22:00,65.0,-99.9,29.86,SSE,156,15.0,16.0,-999,-99.99,,,-99.99,,2013-02-05 05:22:00,
2013-02-04 23:32:00,65.0,-99.9,29.86,SSE,159,14.0,16.0,-999,-99.99,,,-99.99,,2013-02-05 05:32:00,
2013-02-04 23:42:00,65.0,-99.9,29.86,SSE,159,13.0,15.0,-999,-99.99,,,-99.99,,2013-02-05 05:42:00,
2013-02-04 23:52:00,65.0,-99.9,29.86,SSE,161,12.0,15.0,-999,-99.99,,,-99.99,,2013-02-05 05:52:00,